Location: Eexterzandvoort
(53.0303°N, 6.7884°E)
Time: 01:28:46
(UTC+00:00)

Cosmos 1538 Rocket - Pass Details

Date: 19 May 2025
Orbit: 749 x 788 km, 74.0° (Epoch: 23 June)

Event Time Altitude Azimuth Distance (km) Brightness Sun altitude
Exits shadow 22:50:41 28° 183° (S) 1,404 4.8 -16.5°
Maximum altitude 22:53:23 64° 111° (ESE) 836 4.0 -16.6°
Drops below altitude 10° 22:58:29 10° 31° (NNE) 2,281 7.2 -16.7°
Sets 23:00:52 0° 28° (NNE) 3,209 8.2 -16.7°
